User: anonymous   Login
Location: Newark
(52.8662°N, 8.1982°W)
Time: 08:29:51
(UTC+00:00)
Language:

M-CUBED/EXP-1 PRIME - Orbit

View from above orbital plane
View from above orbital plane
View from above satellite
View from above satellite

Ground track
Ground track

The orbit data is extracted from the following two-line orbital elements,

1 37855U 11061F   20025.75227352  .00000349  00000-0  25376-4 0  9992
2 37855 101.7267  40.0546 0172061 141.3334 220.0344 15.05951445450046
Epoch (UTC): 25 January 2020 18:03:16
Eccentricity: 0.0172061
inclination: 101.7267°
perigee height: 429 km
apogee height: 668 km
right ascension of ascending node: 40.0546°
argument of perigee: 141.3334°
revolutions per day: 15.05951445
mean anomaly at epoch: 220.0344°
orbit number at epoch: 45004

The dashed part of the orbit path shows where the satellite is in the earth's shadow,  

DLR